Flag for Netherlands Weather past 2 weeks in Philipsburg, Saint Martin, Netherlands

Now
86 °F

Passing clouds.


Feels Like: 93 °F
Forecast: N/A
Wind: 3 mph from North

Location: Juliana Airport - Saint Maarten

Current Time: Apr 26, 2015 at 5:13:19 PM

Latest Report: Apr 26, 2015 at 4:00 PM


Visibility: N/A

Pressure: 29.95 "Hg

Humidity: 66%

Dew point: 73 °F

Location of PhilipsburgLocation

Historic Weather in Philipsburg — Graph

°F

Philipsburg temperature yesterday

Maximum temperature yesterday: 86 °F (at 1:00 PM)
Minimum temperature yesterday: 79 °F (at 12:00 AM)
Average temperature yesterday: 82 °F

Past Weeks' High & Low Weather Summary

 TemperatureHumidityPressure
High86 °F (Apr 16, 2:00 PM)89% (Apr 17, 5:00 AM)30.15 "Hg (Apr 17, 5:00 AM)
Low73 °F (Apr 13, 4:00 AM)51% (Apr 21, 11:00 AM)29.92 "Hg (Apr 24, 4:00 PM)
Average80 °F72%30.03 "Hg
* Reported Apr 11 4:00 PM — Apr 26 4:00 PM, Philipsburg, Weather by CustomWeather, © 2015

Note: Actual official high and low records may vary slightly from our data, if they occured in-between our weather recording intervals... More about our weather records

Advertising

Philipsburg weather history for previous 24 hours

 ConditionsComfort  
Time TempWeatherWind HumidityBarometerVisibility
4:00 PM
Sun, Apr 26
86 °FPassing clouds.3 mph66%29.95 "HgN/A
3:00 PM86 °FPassing clouds.3 mph66%29.95 "HgN/A
2:00 PM86 °FPassing clouds.5 mph66%29.95 "HgN/A
1:00 PM86 °FPassing clouds.3 mph66%29.98 "HgN/A
12:00 PM86 °FPassing clouds.3 mph70%29.98 "HgN/A
11:00 AM84 °FPassing clouds.8 mph70%30.01 "HgN/A
10:00 AM84 °FScattered clouds.8 mph70%30.01 "HgN/A
9:00 AM82 °FPassing clouds.7 mph74%29.98 "HgN/A
7:00 AM82 °FPassing clouds.2 mph74%29.98 "HgN/A
6:00 AM81 °FPassing clouds.3 mph79%29.95 "HgN/A
5:00 AM79 °FPassing clouds.1 mph84%29.95 "HgN/A
4:00 AM79 °FPassing clouds.3 mph84%29.95 "HgN/A
2:00 AM81 °FPassing clouds.3 mph79%29.95 "HgN/A
1:00 AM81 °FPassing clouds.2 mph79%29.95 "HgN/A
12:00 AM81 °FPassing clouds.2 mph79%29.98 "HgN/A
11:00 PM
Sat, Apr 25
81 °FPassing clouds.3 mph79%30.01 "HgN/A
10:00 PM81 °FPassing clouds.1 mph79%30.01 "HgN/A
9:00 PM81 °FPassing clouds.3 mph79%29.98 "HgN/A
8:00 PM81 °FPassing clouds.3 mph79%29.95 "HgN/A
7:00 PM81 °FPassing clouds.2 mph79%29.95 "HgN/A
6:00 PM82 °FPassing clouds.2 mph74%29.95 "HgN/A
5:00 PM84 °FPassing clouds.2 mph70%29.92 "HgN/A
Weather by CustomWeather, © 2015

See weather overviewHow to use our weather pages